Location: Killam
(52.7910°N, 111.8608°W)
Time: 06:45:58
(UTC+00:00)

PCSat - Visible Passes

Search period start: 17 March 2026 00:00
Search period end: 27 March 2026 00:00
Orbit: 780 x 790 km, 67.0° (Epoch: 16 March)

Date Brightness Start Highest point End Pass type
(mag) Time Alt. Az. Time Alt. Az. Time Alt. Az.
17 Mar 12.1 06:09:35 11° NE 06:09:35 11° NE 06:09:48 10° NE visible
17 Mar 11.6 07:50:09 25° N 07:50:09 25° N 07:53:03 10° NNE visible
17 Mar 11.9 09:30:43 14° NW 09:33:13 18° N 09:36:56 10° NE visible
17 Mar 11.7 11:14:08 10° NNW 11:18:26 23° NNE 11:22:42 10° ENE visible
17 Mar 10.3 12:57:26 10° NW 13:02:49 59° NE 13:08:09 10° SE visible
18 Mar 11.6 07:18:07 24° NNE 07:18:07 24° NNE 07:20:42 10° NNE visible
18 Mar 11.8 08:58:41 16° NW 09:00:31 19° N 09:04:21 10° NE visible
18 Mar 11.9 10:41:42 10° NNW 10:45:46 21° NNE 10:49:50 10° ENE visible
18 Mar 10.6 12:25:06 10° NNW 12:30:21 47° NE 12:35:34 10° ESE visible
19 Mar 11.5 06:45:58 25° NNE 06:45:58 25° NNE 06:48:22 10° NNE visible
19 Mar 11.8 08:26:31 19° NNW 08:27:50 20° NNW 08:31:49 10° NNE visible
19 Mar 11.9 10:09:12 10° NW 10:13:05 19° NNE 10:16:58 10° ENE visible
19 Mar 11.0 11:52:46 10° NNW 11:57:51 39° NE 12:02:55 10° ESE visible
20 Mar 11.3 06:13:39 26° NNE 06:13:39 26° NNE 06:16:02 10° NE visible
20 Mar 11.7 07:54:10 21° NW 07:55:10 22° NNW 07:59:21 10° NNE visible
20 Mar 12.0 09:36:39 10° NW 09:40:24 18° N 09:44:08 10° NE visible
20 Mar 11.2 11:20:25 10° NNW 11:25:19 33° NNE 11:30:11 10° E visible
21 Mar 11.0 05:40:59 30° NNE 05:40:59 30° NNE 05:43:40 10° NE visible
21 Mar 11.6 07:21:28 23° NW 07:22:31 24° NNW 07:26:56 10° NNE visible
21 Mar 12.1 09:04:01 10° NW 09:07:41 18° N 09:11:22 10° NE visible
21 Mar 11.5 10:48:04 10° NNW 10:52:44 28° NNE 10:57:23 10° E visible
21 Mar 9.7 12:31:18 10° NW 12:36:46 86° NE 12:42:10 10° SE visible
22 Mar 11.6 03:27:00 11° ENE 03:27:00 11° ENE 03:27:11 10° ENE visible
22 Mar 10.1 05:07:24 49° NNE 05:07:24 49° NNE 05:11:20 10° NE visible
22 Mar 11.4 06:47:46 22° WNW 06:49:54 28° NNW 06:54:34 10° NNE visible
22 Mar 12.1 08:31:18 10° NW 08:34:59 18° N 08:38:38 10° NE visible
22 Mar 11.7 10:15:41 10° NNW 10:20:07 25° NNE 10:24:33 10° ENE visible
22 Mar 9.9 11:58:56 10° NW 12:04:23 68° NE 12:09:45 10° SE visible
23 Mar 11.0 02:47:55 10° SE 02:51:04 16° ESE 02:54:14 10° ENE visible
23 Mar 9.4 04:28:07 10° SSW 04:33:30 77° SE 04:38:57 10° NE visible
23 Mar 11.1 06:12:28 10° W 06:17:19 32° NNW 06:22:12 10° NNE visible
23 Mar 12.0 07:58:31 10° NW 08:02:16 18° N 08:06:00 10° NE visible
23 Mar 11.9 09:43:16 10° NNW 09:47:29 22° NNE 09:51:41 10° ENE visible
23 Mar 10.3 11:26:36 10° NW 11:31:56 55° NE 11:37:14 10° ESE visible
24 Mar 9.5 03:55:55 10° SSW 04:01:12 59° ESE 04:06:32 10° NE visible
24 Mar 10.9 05:39:44 10° WSW 05:44:47 38° NW 05:49:51 10° NNE visible
24 Mar 12.0 07:25:42 10° WNW 07:29:33 19° NNW 07:33:26 10° NE visible
24 Mar 12.0 09:10:49 10° NNW 09:14:49 20° NNE 09:18:49 10° ENE visible
24 Mar 10.7 10:54:16 10° NNW 10:59:27 44° NE 11:04:38 10° ESE visible
24 Mar 9.8 12:37:40 10° NW 12:42:51 48° WSW 12:48:00 10° SSE visible
25 Mar 9.8 03:23:50 10° S 03:28:56 45° ESE 03:34:04 10° NE visible
25 Mar 10.5 05:07:04 10° WSW 05:12:16 46° NW 05:17:31 10° NNE visible
25 Mar 11.9 06:52:50 10° WNW 06:56:52 21° NNW 07:00:56 10° NNE visible
25 Mar 12.1 08:38:18 10° NW 08:42:08 19° N 08:45:57 10° NE visible
25 Mar 11.0 10:21:55 10° NNW 10:26:57 37° NE 10:31:56 10° ESE visible
25 Mar 9.6 12:05:13 10° NW 12:10:35 63° WSW 12:15:54 10° SSE visible
26 Mar 10.1 02:51:54 10° S 02:56:43 34° ESE 03:01:33 10° NE visible
26 Mar 10.1 04:34:28 10° WSW 04:39:48 57° NW 04:45:10 10° NE visible
26 Mar 11.8 06:19:57 10° WNW 06:24:13 23° NNW 06:28:29 10° NNE visible
26 Mar 12.1 08:05:42 10° NW 08:09:25 18° N 08:13:08 10° NE visible
26 Mar 11.3 09:49:34 10° NNW 09:54:23 31° NNE 09:59:11 10° E visible
26 Mar 9.5 11:32:49 10° NW 11:38:15 81° SW 11:43:39 10° SSE visible
